This demonstration page uses our WeatherBlox Daily Observations layout. Learn more.

Hourly Observations for June 24, 2020

Temp ( °F °C ) Dew Point ( °F °C ) Humidity (%) Winds ( mph kmh ) Pressure ( in mb ) Visibility ( mi km ) Precip ( " mm )
12:15 am 00:15 Partly Cloudy 68 20 68 20 100 100 Calm 29.71 1006 10 16.0934 0 0
12:35 am 00:35 Partly Cloudy 66 19 66 19 100 100 Calm 29.71 1006 10 16.0934 0 0
12:55 am 00:55 Mostly Cloudy 66 19 66 19 100 100 Calm 29.71 1006 10 16.0934 0 0
1:15 am 01:15 Cloudy 64 18 64 18 100 100 Calm 29.71 1006 10 16.0934 0 0
1:35 am 01:35 Cloudy 64 18 64 18 100 100 Calm 29.7 1006 10 16.0934 0 0
1:55 am 01:55 Cloudy 64 18 64 18 100 100 W 3 6 29.71 1006 10 16.0934 0 0
2:15 am 02:15 Cloudy 64 18 64 18 100 100 Calm 29.71 1006 10 16.0934 0 0
2:35 am 02:35 Cloudy 64 18 64 18 100 100 Calm 29.72 1007 10 16.0934 0 0
2:55 am 02:55 Cloudy 66 19 64 18 94 94 WNW 7 11 29.72 1007 10 16.0934 0 0
3:15 am 03:15 Partly Cloudy 66 19 64 18 94 94 NW 10 17 29.72 1007 10 16.0934 0 0
3:35 am 03:35 Clear 68 20 63 17 83 83 NW 12 19 29.73 1007 10 16.0934 0 0
3:55 am 03:55 Partly Cloudy 68 20 63 17 83 83 WNW 14 22 29.74 1007 10 16.0934 0 0
4:15 am 04:15 Partly Cloudy 68 20 63 17 83 83 WNW 8 13 29.75 1008 10 16.0934 0 0
4:35 am 04:35 Clear 68 20 63 17 83 83 NW 6 9 29.75 1008 10 16.0934 0 0
4:55 am 04:55 Clear 68 20 63 17 83 83 NW 3 6 29.76 1008 10 16.0934 0 0
5:15 am 05:15 Clear 64 18 63 17 94 94 WNW 3 6 29.77 1008 10 16.0934 0 0
5:35 am 05:35 Partly Cloudy 64 18 63 17 94 94 NW 5 7 29.78 1009 10 16.0934 0 0
5:55 am 05:55 Mostly Cloudy 64 18 61 16 88 88 NW 3 6 29.79 1009 10 16.0934 0 0
6:15 am 06:15 Partly Cloudy 66 19 61 16 83 83 NNW 3 6 29.79 1009 10 16.0934 0 0
6:35 am 06:35 Sunny 64 18 61 16 88 88 NW 3 6 29.81 1010 10 16.0934 0 0
6:55 am 06:55 Sunny 68 20 61 16 78 78 WNW 5 7 29.81 1010 10 16.0934 0 0
7:15 am 07:15 Sunny 68 20 63 17 83 83 NW 6 9 29.82 1010 10 16.0934 0 0
7:35 am 07:35 Sunny 68 20 61 16 78 78 NW 3 6 29.83 1010 10 16.0934 0 0
7:55 am 07:55 Sunny 70 21 63 17 78 78 NW 6 9 29.84 1010 10 16.0934 0 0
8:15 am 08:15 Sunny 70 21 63 17 78 78 NW 5 7 29.85 1011 10 16.0934 0 0
8:35 am 08:35 Partly Cloudy 70 21 61 16 73 73 WNW 13 20 29.86 1011 10 16.0934 0 0
8:55 am 08:55 Partly Cloudy 70 21 59 15 69 69 NW 12 19 29.86 1011 10 16.0934 0 0
9:15 am 09:15 Sunny 72 22 61 16 69 69 WNW 7 11 29.87 1011 10 16.0934 0 0
9:35 am 09:35 Sunny 72 22 59 15 65 65 WNW 12 19 29.87 1011 10 16.0934 0 0
9:55 am 09:55 Sunny 72 22 59 15 65 65 WNW 10 17 29.87 1011 10 16.0934 0 0
10:15 am 10:15 Sunny 73 23 59 15 61 61 NW 12 19 29.87 1011 10 16.0934 0 0
10:35 am 10:35 Sunny 73 23 57 14 57 57 NNW 8 13 29.86 1011 10 16.0934 0 0
10:55 am 10:55 Sunny 73 23 57 14 57 57 W 8 13 29.86 1011 10 16.0934 0 0
11:15 am 11:15 Sunny 75 24 59 15 57 57 WNW 14 22 29.86 1011 10 16.0934 0 0
11:35 am 11:35 Sunny 77 25 59 15 54 54 W 7 11 29.85 1011 10 16.0934 0 0
11:55 am 11:55 Sunny 77 25 59 15 54 54 NW 8 13 29.85 1011 10 16.0934 0 0
12:15 pm 12:15 Sunny 79 26 59 15 51 51 WNW 14 22 29.85 1011 10 16.0934 0 0
12:35 pm 12:35 Sunny 79 26 57 14 48 48 WNW 14 22 29.84 1011 10 16.0934 0 0
12:55 pm 12:55 Sunny 79 26 57 14 48 48 WNW 13 20 29.84 1011 10 16.0934 0 0
1:15 pm 13:15 Sunny 79 26 59 15 51 51 W 8 13 29.84 1011 10 16.0934 0 0
1:35 pm 13:35 Partly Cloudy 79 26 59 15 51 51 NW 5 7 29.84 1011 10 16.0934 0 0
1:55 pm 13:55 Partly Cloudy 81 27 57 14 45 45 W 9 15 29.84 1011 10 16.0934 0 0
2:15 pm 14:15 Partly Cloudy 81 27 55 13 42 42 W 8 13 29.84 1011 10 16.0934 0 0
2:35 pm 14:35 Partly Cloudy 81 27 55 13 42 42 WNW 6 9 29.84 1011 10 16.0934 0 0
2:55 pm 14:55 Partly Cloudy 81 27 55 13 42 42 SW 8 13 29.84 1011 10 16.0934 0 0
3:15 pm 15:15 Partly Cloudy 82 28 57 14 42 42 WSW 9 15 29.84 1011 10 16.0934 0 0
3:35 pm 15:35 Partly Cloudy 82 28 57 14 42 42 W 8 13 29.84 1011 10 16.0934 0 0
3:55 pm 15:55 Partly Cloudy 82 28 57 14 42 42 WSW 13 20 29.84 1011 10 16.0934 0 0
4:15 pm 16:15 Partly Cloudy 84 29 55 13 37 37 W 13 20 29.84 1010 10 16.0934 0 0
4:35 pm 16:35 Mostly Cloudy 82 28 55 13 40 40 W 8 13 29.84 1011 10 16.0934 0 0
4:55 pm 16:55 Mostly Cloudy 82 28 57 14 42 42 WSW 9 15 29.83 1010 10 16.0934 0 0
5:15 pm 17:15 Partly Cloudy 82 28 57 14 42 42 WSW 8 13 29.83 1010 10 16.0934 0 0
5:35 pm 17:35 Sunny 82 28 57 14 42 42 WSW 6 9 29.83 1010 10 16.0934 0 0
5:55 pm 17:55 Sunny 84 29 57 14 40 40 WSW 8 13 29.82 1010 10 16.0934 0 0
6:15 pm 18:15 Sunny 82 28 57 14 42 42 WSW 7 11 29.83 1010 10 16.0934 0 0
6:35 pm 18:35 Partly Cloudy 81 27 59 15 48 48 WSW 5 7 29.83 1010 10 16.0934 0 0
6:55 pm 18:55 Mostly Cloudy 81 27 61 16 51 51 SSW 3 6 29.83 1010 10 16.0934 0 0
7:15 pm 19:15 Partly Cloudy 81 27 61 16 51 51 SW 5 7 29.84 1011 10 16.0934 0 0
7:35 pm 19:35 Partly Cloudy 79 26 61 16 54 54 SW 3 6 29.84 1011 10 16.0934 0 0
7:55 pm 19:55 Partly Cloudy 79 26 63 17 58 58 SSW 3 6 29.85 1011 10 16.0934 0 0
8:15 pm 20:15 Sunny 77 25 63 17 61 61 Calm 29.85 1011 10 16.0934 0 0
8:35 pm 20:35 Partly Cloudy 77 25 63 17 61 61 Calm 29.85 1011 10 16.0934 0 0
8:55 pm 20:55 Cloudy 75 24 64 18 69 69 WNW 3 6 29.86 1011 10 16.0934 0 0
9:15 pm 21:15 Mostly Cloudy 73 23 64 18 74 74 WNW 3 6 29.87 1011 10 16.0934 0 0
9:35 pm 21:35 Mostly Cloudy 73 23 64 18 74 74 W 3 6 29.88 1012 10 16.0934 0 0
9:55 pm 21:55 Cloudy 73 23 64 18 74 74 W 3 6 29.88 1012 10 16.0934 0 0
10:15 pm 22:15 Mostly Cloudy 73 23 64 18 74 74 WNW 5 7 29.89 1012 10 16.0934 0 0
10:35 pm 22:35 Cloudy 73 23 63 17 69 69 WNW 3 6 29.89 1012 10 16.0934 0 0
10:55 pm 22:55 Cloudy 73 23 63 17 69 69 WNW 3 6 29.9 1012 10 16.0934 0 0
11:15 pm 23:15 Mostly Cloudy 73 23 63 17 69 69 Calm 29.9 1012 10 16.0934 0 0
11:35 pm 23:35 Partly Cloudy 73 23 61 16 65 65 Calm 29.91 1013 10 16.0934 0 0
11:55 pm 23:55 Clear 72 22 61 16 69 69 NW 3 6 29.91 1013 10 16.0934 0 0

Powered by AerisWeather